This demonstration page uses our WeatherBlox Daily Observations layout. Learn more.

Left ArrowRight Arrow

39.12711, -84.51439

Hourly Observations for September 29, 2016

Temp ( °F °C ) Dew Point ( °F °C ) Humidity (%) Winds ( mph kmh ) Pressure ( in mb ) Visibility ( mi km ) Precip ( " mm )
12:53 am 00:53 Clear 51 10.6 51 10.6 100 100 SSW 5 7 29.97 1015 N/A 0.00 0.00
1:49 am 01:49 Mostly Cloudy 50 10 50 10 100 100 SSW 5 7 29.97 1015 N/A 0.00 0.00
1:53 am 01:53 Mostly Cloudy 50 10 50 10 100 100 SW 5 7 29.97 1015 N/A 0.00 0.00
2:19 am 02:19 Partly Cloudy 52 11.1 52 11.1 100 100 Calm 29.97 1015 N/A 0.00 0.00
2:38 am 02:38 Mostly Cloudy 52 11 52 11 100 100 Calm 29.97 1015 N/A 0.00 0.00
2:53 am 02:53 Mostly Cloudy 53 11.7 53 11.7 100 100 NNE 3 6 29.98 1015 N/A 0.00 0.00
3:13 am 03:13 Cloudy 52 11.1 52 11.1 100 100 E 3 6 29.97 1015 N/A 0.00 0.00
3:53 am 03:53 Cloudy 53 11.7 53 11.7 100 100 Calm 29.98 1015 N/A 0.00 0.00
4:49 am 04:49 Cloudy 52 11 52 11 100 100 Calm 30.00 1016 N/A 0.00 0.00
4:53 am 04:53 Mostly Cloudy 53 11.7 53 11.7 100 100 Calm 29.98 1015 N/A 0.00 0.00
5:53 am 05:53 Cloudy 53 11.7 53 11.7 100 100 Calm 29.99 1016 N/A 0.00 0.00
6:53 am 06:53 Cloudy with Mist and Fog 53 11.7 53 11.7 100 100 S 3 6 30.01 1016 4 6 0.00 0.00
7:32 am 07:32 Cloudy with Mist and Fog 54 12 54 12 100 100 SSE 3 6 30.03 1017 3 5 0.00 0.00
7:53 am 07:53 Cloudy with Mist and Fog 53 11.7 53 11.7 100 100 Calm 30.04 1017 3 5 0.00 0.00
8:53 am 08:53 Cloudy with Mist and Fog 55 12.8 53 11.7 93 93 Calm 30.06 1018 3 5 0.00 0.00
9:27 am 09:27 Mostly Cloudy with Mist and Fog 56 13.3 53 11.7 90 90 Calm 30.06 1018 5 8 0.00 0.00
9:53 am 09:53 Mostly Cloudy with Mist and Fog 57 13.9 54 12.2 90 90 ENE 3 6 30.06 1018 5 8 0.00 0.00
10:00 am 10:00 Mostly Cloudy with Mist and Fog 57 14 54 12 88 88 ENE 3 6 30.06 1018 5 8 0.00 0.00
10:53 am 10:53 Cloudy 58 14.4 55 12.8 90 90 NE 7 11 30.08 1019 7 11 0.00 0.00
11:53 am 11:53 Cloudy 59 15 55 12.8 87 87 E 6 9 30.09 1019 10 16 0.00 0.00
12:53 pm 12:53 Mostly Cloudy 61 16.1 54 12.2 78 78 ENE 6 9 30.08 1019 10 16 0.00 0.00
1:53 pm 13:53 Mostly Cloudy 65 18.3 55 12.8 70 70 N 9 15 30.08 1019 10 16 0.00 0.00
2:05 pm 14:05 Mostly Cloudy 64 17.8 54 12.2 70 70 ENE 8 13 30.06 1018 10 16 0.00 0.00
2:53 pm 14:53 Mostly Cloudy 65 18.3 54 12.2 68 68 E 3 6 30.08 1019 10 16 0.00 0.00
3:53 pm 15:53 Cloudy with Light Rain 61 16.1 55 12.8 81 81 E 3 6 30.07 1018 7 11 0.00 0.03
4:53 pm 16:53 Mostly Cloudy 61 16.1 57 13.9 87 87 Calm 30.07 1018 10 16 0.01 0.25
5:53 pm 17:53 Mostly Cloudy 62 16.7 58 14.4 86 86 Calm 30.07 1018 10 16 0.00 0.00
6:53 pm 18:53 Mostly Cloudy 60 15.6 60 15.6 100 100 SSE 3 6 30.07 1018 10 16 0.00 0.00
7:53 pm 19:53 Partly Cloudy with Mist and Fog 57 13.9 57 13.9 100 100 SSE 3 6 30.08 1019 6 10 0.00 0.00
8:53 pm 20:53 Mostly Cloudy 58 14.4 58 14.4 100 100 NNE 3 6 30.09 1019 8 13 0.01 0.25
9:53 pm 21:53 Mostly Cloudy with Mist and Fog 57 13.9 57 13.9 100 100 NE 3 6 30.08 1019 3 5 0.00 0.00
10:53 pm 22:53 Cloudy with Mist and Fog 58 14.4 58 14.4 100 100 Calm 30.08 1019 6 10 0.00 0.00
11:53 pm 23:53 Cloudy with Light Rain 59 15 58 14.4 96 96 ENE 5 7 30.09 1019 10 16 0.00 0.03

Powered by AerisWeather